Orangeburg, SC

10:24 AM EDT on June 26, 2017 (GMT -0400)
Orangeburg Municipal

Weather History for KOGB - January, 2012

Change the Weather History Date:

Monday, January 23, 2012

  Actual Average Record
Temperature  
Mean Temperature 51 °F 46 °F  
Max Temperature 61 °F 57 °F 74 °F (1967)
Min Temperature 41 °F 36 °F 17 °F (1961)
Degree Days  
Heating Degree Days 14 19  
Month to date heating degree days 356 449  
Since 1 July heating degree days 1136 1353  
Cooling Degree Days 0 0  
Month to date cooling degree days 0 0  
Year to date cooling degree days 0 0  
Moisture  
Dew Point 50 °F    
Average Humidity 95    
Maximum Humidity 100    
Minimum Humidity 87    
Precipitation  
Precipitation 0.01 in 0.14 in 0.87 in (2015)
Month to date precipitation 1.65 2.80  
Year to date precipitation 1.65 2.80  
Sea Level Pressure  
Sea Level Pressure 30.11 in    
Wind  
Wind Speed 3 mph (ESE)    
Max Wind Speed 9 mph    
Max Gust Speed 13 mph    
Visibility 2 miles    
Events Fog , Rain    
T = Trace of Precipitation, MM = Missing Value Source: NWS Daily Summary

Daily Weather History Graph

Daily Weather History Graph

Search for Another Location

Airport or City:

Trip Planner

Search our weather history database for the weather conditions in past years. The results will help you decide how hot, cold, wet, or windy it might be!

Date:

Astronomy

Jan. 23, 2012 Rise Set
Actual Time 7:24 AM EST 5:45 PM EST
Civil Twilight 6:58 AM EST 6:12 PM EST
Nautical Twilight 6:28 AM EST 6:42 PM EST
Astronomical Twilight 5:58 AM EST 7:12 PM EST
Moon 7:22 AM EST (1/23) 6:27 PM EST (1/23)
Length of Visible Light 11h 13m
Length of Day
10h 20m
New Moon, 0% of the Moon is Illuminated
Jan 23
New Moon
Jan 30
First Quarter
Feb 7
Full
Feb 14
Last Quarter
Feb 21
New

Hourly Weather History & Observations

Time (EST) Temp. Windchill Dew Point Humidity Pressure Visibility Wind Dir Wind Speed Gust Speed Precip Events Conditions
12:17 AM 41.0 °F 36.4 °F 39.2 °F 93% 30.27 in 4.0 mi East 6.9 mph - N/A   Overcast
12:51 AM 41.0 °F 36.4 °F 39.2 °F 93% 30.26 in 2.5 mi ENE 6.9 mph - N/A   Overcast
12:53 AM 41.0 °F 35.8 °F 39.9 °F 96% 30.26 in 2.0 mi ENE 8.1 mph - N/A   Overcast
1:18 AM 41.0 °F 39.0 °F 39.2 °F 93% 30.27 in 1.8 mi ENE 3.5 mph - N/A   Overcast
1:35 AM 41.0 °F 36.4 °F 39.2 °F 93% 30.25 in 2.5 mi East 6.9 mph - N/A   Overcast
1:53 AM 41.0 °F 36.4 °F 39.9 °F 96% 30.25 in 2.0 mi ENE 6.9 mph - N/A   Overcast
2:41 AM 41.0 °F 37.1 °F 39.2 °F 93% 30.23 in 3.0 mi East 5.8 mph - N/A   Overcast
2:53 AM 41.0 °F 35.8 °F 39.9 °F 96% 30.22 in 3.0 mi East 8.1 mph - N/A   Overcast
3:28 AM 42.8 °F 38.6 °F 39.2 °F 87% 30.20 in 4.0 mi East 6.9 mph - 0.00 in Rain Light Rain
3:53 AM 42.1 °F 37.7 °F 39.9 °F 92% 30.17 in 4.0 mi East 6.9 mph - 0.00 in   Overcast
4:53 AM 42.1 °F 38.4 °F 39.9 °F 92% 30.15 in 4.0 mi ESE 5.8 mph - N/A   Overcast
5:53 AM 42.1 °F 40.2 °F 41.0 °F 96% 30.17 in 4.0 mi East 3.5 mph - N/A   Overcast
7:16 AM 42.8 °F - 41.0 °F 93% 30.19 in 2.5 mi Calm Calm - N/A   Overcast
7:32 AM 42.8 °F - 41.0 °F 93% 30.18 in 1.8 mi Calm Calm - N/A   Overcast
7:40 AM 42.8 °F 41.1 °F 42.8 °F 100% 30.19 in 1.5 mi ENE 3.5 mph - N/A   Overcast
8:39 AM 42.8 °F - 42.8 °F 100% 30.20 in 1.0 mi Calm Calm - N/A   Overcast
8:50 AM 42.8 °F - 42.8 °F 100% 30.19 in 0.5 mi Calm Calm - N/A Fog Fog
8:53 AM 44.1 °F - 42.1 °F 93% 30.19 in 0.5 mi Calm Calm - N/A Fog Fog
9:53 AM 45.0 °F 42.6 °F 44.1 °F 97% 30.18 in 0.5 mi SE 4.6 mph - N/A Fog Fog
10:53 AM 48.0 °F - 46.9 °F 96% 30.17 in 0.5 mi Calm Calm - N/A Fog Fog
11:53 AM 50.0 °F - 48.9 °F 96% 30.13 in 1.0 mi SE 5.8 mph - N/A   Overcast
12:12 PM 50.0 °F - 48.2 °F 94% 30.12 in 0.8 mi SE 5.8 mph - N/A   Overcast
12:23 PM 51.8 °F - 50.0 °F 94% 30.12 in 1.0 mi Variable 3.5 mph - N/A   Overcast
12:33 PM 51.8 °F - 50.0 °F 94% 30.12 in 0.8 mi SSE 4.6 mph - N/A   Overcast
12:49 PM 51.8 °F - 51.8 °F 100% 30.11 in 1.2 mi Calm Calm - N/A   Overcast
12:53 PM 52.0 °F - 50.0 °F 93% 30.12 in 1.2 mi Calm Calm - N/A   Overcast
1:49 PM 53.6 °F - 51.8 °F 94% 30.07 in 2.0 mi SE 4.6 mph - N/A   Overcast
1:53 PM 53.1 °F - 52.0 °F 96% 30.07 in 2.0 mi SE 4.6 mph - N/A   Overcast
2:53 PM 55.0 °F - 54.0 °F 96% 30.07 in 2.0 mi Calm Calm - N/A   Overcast
3:05 PM 55.4 °F - 53.6 °F 94% 30.06 in 1.5 mi South 3.5 mph - N/A   Overcast
3:13 PM 55.4 °F - 53.6 °F 94% 30.06 in 2.0 mi Calm Calm - N/A   Overcast
3:37 PM 57.2 °F - 55.4 °F 94% 30.06 in 3.0 mi South 3.5 mph - N/A   Overcast
3:48 PM 57.2 °F - 55.4 °F 94% 30.06 in 2.5 mi Calm Calm - N/A   Overcast
3:53 PM 57.9 °F - 55.9 °F 93% 30.06 in 2.5 mi SSW 3.5 mph - N/A   Overcast
4:00 PM 57.2 °F - 55.4 °F 94% 30.05 in 3.0 mi Calm Calm - N/A   Overcast
4:50 PM 59.0 °F - 55.4 °F 88% 30.04 in 4.0 mi South 3.5 mph - N/A   Overcast
4:53 PM 59.0 °F - 55.9 °F 90% 30.04 in 4.0 mi South 3.5 mph - N/A   Overcast
5:11 PM 60.8 °F - 57.2 °F 88% 30.03 in 3.0 mi South 4.6 mph - N/A   Scattered Clouds
5:20 PM 60.8 °F - 57.2 °F 88% 30.03 in 2.5 mi Calm Calm - N/A   Clear
5:30 PM 60.8 °F - 57.2 °F 88% 30.03 in 5.0 mi Variable 3.5 mph - N/A   Partly Cloudy
5:53 PM 57.9 °F - 55.9 °F 93% 30.04 in 4.0 mi Calm Calm - N/A   Mostly Cloudy
6:19 PM 55.4 °F - 53.6 °F 94% 30.05 in 1.8 mi Calm Calm - N/A   Clear
6:33 PM 55.4 °F - 55.4 °F 100% 30.06 in 2.0 mi Calm Calm - N/A   Partly Cloudy
6:53 PM 55.9 °F - 55.0 °F 97% 30.06 in 2.5 mi Calm Calm - N/A   Scattered Clouds
7:12 PM 55.4 °F - 55.4 °F 100% 30.06 in 1.2 mi Calm Calm - N/A   Partly Cloudy
7:21 PM 55.4 °F - 53.6 °F 94% 30.06 in 0.5 mi Calm Calm - N/A Fog Fog
7:53 PM 55.0 °F - 55.0 °F 100% 30.06 in 0.8 mi Calm Calm - N/A   Overcast
8:08 PM 55.4 °F - 55.4 °F 100% 30.06 in 1.0 mi Calm Calm - N/A   Overcast
8:21 PM 55.4 °F - 55.4 °F 100% 30.06 in 2.0 mi Calm Calm - N/A   Overcast
8:53 PM 55.9 °F - 55.0 °F 97% 30.04 in 1.8 mi ESE 3.5 mph - 0.00 in Rain Light Rain
9:07 PM 55.4 °F - 55.4 °F 100% 30.05 in 1.0 mi Calm Calm - 0.00 in   Mostly Cloudy
9:14 PM 55.4 °F - 53.6 °F 94% 30.04 in 0.2 mi ESE 3.5 mph - 0.00 in Fog Fog
9:27 PM 55.4 °F - 55.4 °F 100% 30.04 in 1.8 mi Calm Calm - 0.00 in   Scattered Clouds
9:34 PM 55.4 °F - 55.4 °F 100% 30.05 in 2.0 mi Calm Calm - 0.00 in   Partly Cloudy
9:49 PM 55.4 °F - 55.4 °F 100% 30.05 in 1.5 mi Calm Calm - 0.00 in   Clear
9:53 PM 55.9 °F - 55.0 °F 97% 30.05 in 1.0 mi Calm Calm - 0.00 in   Clear
10:00 PM 55.4 °F - 55.4 °F 100% 30.05 in 0.8 mi Calm Calm - N/A   Clear
10:24 PM 57.2 °F - 55.4 °F 94% 30.05 in 2.0 mi Calm Calm - N/A   Partly Cloudy
10:42 PM 57.2 °F - 57.2 °F 100% 30.06 in 4.0 mi Calm Calm - N/A   Mostly Cloudy
10:53 PM 57.9 °F - 57.0 °F 97% 30.05 in 4.0 mi South 3.5 mph - 0.01 in   Overcast
11:53 PM 61.0 °F - 59.0 °F 93% 30.04 in 5.0 mi South 6.9 mph - N/A   Mostly Cloudy